STARLINK-2501, 48330

Orbit data source: Space-Track

STARLINK-2501, 48330 is a payload satellite owned by SpaceX/Seattle (US) in LEO that was launched on Thu, 29 Apr 2021 UTC via an FALCON 9 launch vehicle from the Air Force Eastern Test Range (AFETR). Payload-class satellites include a variety of spacecraft equipped with specific instruments for various scientific and technological missions. These include communications satellites like Starlink; space stations such as the ISS; scientific satellites like the Hubble; Earth observation satellites from companies like Planet Labs, Umbra, and HawkEye 360; GPS; miniature CubeSats for education and research; and military/defense satellites.

Loading next visibility...
Identifier
48330, 2021-036BG
Orbit
LEO
Country
Flag of USUS
Related business
Manufacturer
SpaceX/Seattle
Mission
Operational Commercial Communications
Bus & Motor
STARLINK, Unknown motor
Mass
260 kg wet, ~248 kg dry
Launch date (UTC)
2021-04-29 (5 years ago)
Launch vehicle
FALCON 9
Launch site
Air Force Eastern Test Range (AFETR)
Object type
Payload
Rocket body
Debris
Shape & HBR
Box + 1 Pan, 10.1 m
Radar Cross Section
13.562 m², Large (>1 m²)

Expand to show TLE details & history
Last TLE update: 4 hours ago

TLE from 4 hours ago
0 STARLINK-2501
1 48330U 21036BG  25355.52479069  .00000924  00000-0  80910-4 0  9999
2 48330  53.0553  92.5142 0001172  93.1952 266.9172 15.06400068256257
Epoch: 2025-12-21T12:35Z
TLE epoch observation values (Epoch: 2025-12-21T12:35:41.915Z)
Latitude
0.00004°
Longitude
173.25359°
Altitude
548.134 km
Speed
7.589 km/s
True Right ascension
06h 10m 03s
True Declination
0° 00' 00"
Sunlit
Object was in full shadow at epoch
Visualization orbit readout
Latitude
Unknown
Longitude
Unknown
Altitude
Unknown
Speed
Unknown
Apparent Right ascension
Unknown
Apparent Declination
Unknown
Sunlit
N/A
Visualization observer readout
Local Sidereal Time
16:00:32
Azimuth
Unknown
Elevation
Unknown
Doppler factor
Unknown
Orbital elements
Apogee altitude
548.294 km
Perigee altitude
546.67 km
Semi-major axis
6,925.619 km
Eccentricity
0.00012
Inclination
53.0553°
RAAN
92.5142°
Arg. of periapsis
93.1952°
True anomaly
266.90379°
Mean anomaly
266.9172°
Eccentric anomaly
266.91049°
Mean motion
3.76578 °/min
Orbital period
95.6 mins
BSTAR
0.00008091
Loading maneuver chart data...
Computing Atmospheric mass density...
Loading historical data...
Loading historical data...
Loading historical data...
Loading historical data...
Loading historical data...
Loading historical data...
Loading historical data...

Documentation

Showing up to 5 results
|